Flag for United Kingdom Weather past 2 weeks in Swindon, England, United Kingdom

Now
57 °F

Broken clouds.


Feels Like: 55 °F
Forecast: 49 / 59 °F
Wind: 9 mph from Southwest

Location: Brize Norton

Current Time: Oct 25, 2014 at 12:18:24 PM

Latest Report: Oct 25, 2014 at 11:50 AM


Visibility: N/A

Pressure: 30.07 "Hg

Humidity: 67%

Dew point: 46 °F

Location of SwindonLocation

Historic Weather in Swindon — Graph

°F

Swindon temperature yesterday

Maximum temperature yesterday: 61 °F (at 1:50 PM)
Minimum temperature yesterday: 46 °F (at 11:50 PM)
Average temperature yesterday: 56 °F

Past Weeks' High & Low Weather Summary

 TemperatureHumidityPressure
High66 °F (Oct 17, 12:50 PM)100% (Oct 11, 1:50 AM)30.30 "Hg (Oct 11, 1:50 AM)
Low37 °F (Oct 12, 4:50 AM)49% (Oct 10, 1:50 PM)29.50 "Hg (Oct 13, 1:50 PM)
Average54 °F86%29.82 "Hg
* Reported Oct 10 10:50 AM — Oct 25 10:50 AM, Swindon, Weather by CustomWeather, © 2014

Note: Actual official high and low records may vary slightly from our data, if they occured in-between our weather recording intervals... More about our weather records

Advertising

Swindon weather history for previous 24 hours

 ConditionsComfort  
Time TempWeatherWind HumidityBarometerVisibility
10:50 AM
Oct 25
54 °FPartly sunny.7 mph77%30.04 "HgN/A
9:50 AM52 °FBroken clouds.6 mph82%30.04 "HgN/A
8:50 AM50 °FScattered clouds.5 mph94%30.04 "HgN/A
7:57 AM48 °FPassing clouds.3 mph100%30.04 "HgN/A
6:50 AM46 °FPassing clouds.2 mph100%30.01 "HgN/A
5:50 AM45 °FPassing clouds.2 mph100%30.01 "HgN/A
4:50 AM45 °FPassing clouds.3 mph93%30.01 "HgN/A
3:50 AM45 °FPassing clouds.2 mph100%30.01 "HgN/A
2:50 AM45 °FFog.1 mph93%30.01 "Hg3 mi
1:50 AM45 °FFog.1 mph100%30.01 "Hg3 mi
12:50 AM46 °FFog.3 mph93%30.01 "Hg4 mi
11:50 PM
Oct 24
46 °FClear.2 mph100%29.98 "Hg10 mi
10:50 PM48 °FPassing clouds.2 mph100%29.98 "HgN/A
9:50 PM50 °FPassing clouds.1 mph94%29.98 "HgN/A
8:50 PM50 °FPassing clouds.3 mph94%29.95 "HgN/A
7:50 PM54 °FPartly cloudy.3 mph88%29.95 "HgN/A
6:50 PM55 °FSprinkles. Broken clouds.6 mph88%29.92 "HgN/A
5:50 PM57 °FBroken clouds.7 mph94%29.89 "HgN/A
5:02 PM61 °FRain. Partly sunny.9 mph88%29.86 "Hg2 mi
4:50 PM61 °FLight rain. Partly sunny.8 mph88%29.86 "HgN/A
3:50 PM61 °FDrizzle. Partly sunny.7 mph83%29.89 "HgN/A
2:50 PM61 °FPartly sunny.7 mph83%29.89 "HgN/A
1:50 PM61 °FPartly sunny.8 mph88%29.92 "HgN/A
12:50 PM59 °FDrizzle. Partly sunny.8 mph94%29.92 "HgN/A
Weather by CustomWeather, © 2014

See weather overviewHow to use our weather pages